[[{"header":{"parameterUnit":"m.s-1","parameterCategory":1,"la1":30.2992,"la2":30.254,"lo1":-89.0895,"lo2":-89.0443,"dy":0.0025,"dx":0.0025,"nx":19,"ny":19,"refTime":"2026-03-23T03:00:00:Z","depth":0,"parameterNumber":2,"parameterNumberName":"U-component_of_WINDS"},"data":[0,0,0,1.6927,1.693,1.7087,1.7088,1.7293,1.7295,0,0,0,0,0,0,0,0,0,0,0,1.6878,1.6879,1.6927,1.6931,1.7087,1.7088,1.7292,1.7295,0,0,0,0,0,0,0,0,0,0,0,1.6878,1.6879,1.6881,1.6931,1.7087,1.7088,1.7292,1.7174,0,0,0,0,0,0,0,0,0,0,1.7021,1.6972,1.6879,1.6881,1.6932,1.7087,1.7088,1.7168,1.7181,1.7222,0,1.7253,0,1.7277,1.7308,1.7309,0,0,0,1.6934,1.6961,1.7005,1.6881,1.6934,1.7087,1.7017,1.7175,1.719,1.724,1.7256,1.7264,1.728,1.7309,1.731,1.7527,1.7528,0,0,1.6925,1.6906,1.6995,1.7014,1.6985,1.7012,1.7022,1.7184,1.7203,1.7257,1.7269,1.7284,1.7311,1.7312,1.7527,1.7528,0,0,0,1.6898,1.69,1.694,1.7006,1.7033,1.7017,1.7028,1.7196,1.721,1.7271,1.7286,1.7312,1.7314,1.7526,1.7527,1.755,0,0,0,1.6893,1.6884,1.6936,1.6926,1.703,1.7115,1.7036,1.7199,1.7218,1.7285,1.7312,1.7316,1.7525,1.7526,1.7547,1.7565,0,0,0,1.6869,1.6881,1.6902,1.6925,1.6991,1.7113,1.7137,1.7204,1.7227,1.7309,1.7317,1.7524,1.7526,1.7545,1.7561,1.7617,0,0,0,1.6839,1.6921,1.6902,1.7002,1.6989,1.7124,1.7136,1.7239,1.7312,1.7313,1.7525,1.7527,1.7544,1.7558,1.7614,1.7661,1.7678,0,0,1.6933,1.6932,1.6992,1.698,1.7113,1.7102,1.7241,1.7328,1.7356,1.747,1.7476,1.7548,1.7561,1.7617,1.778,1.7793,0,0,0,1.7016,1.7059,1.7098,1.7165,1.7231,1.7291,1.7358,1.7391,1.7488,1.7409,1.7584,1.7592,1.7626,1.7649,1.7661,1.7693,1.7536,1.7536,1.7536,1.7121,1.715,1.7253,1.7301,1.7366,1.7435,1.7492,1.755,1.7561,1.7602,1.7636,1.7731,1.7758,1.7767,1.7799,1.7663,1.7663,1.7663,1.7663,1.7263,1.7329,1.7342,1.7446,1.7478,1.7568,1.764,1.7645,1.7737,1.7707,1.7739,1.7705,1.778,1.7811,1.7665,1.7665,1.7664,1.7664,1.7664,1.7336,1.7373,1.741,1.7511,1.7587,1.7635,1.7722,1.7749,1.7775,1.7806,1.7847,1.7847,1.7852,1.7824,1.7824,1.7824,1.7825,1.7825,1.7825,1.7397,1.7438,1.7505,1.7584,1.7632,1.7699,1.7772,1.7822,1.7885,1.7898,1.7898,1.7908,1.7781,1.7749,1.783,1.7829,1.7829,1.7828,1.7828,1.7532,1.7506,1.761,1.7658,1.7755,1.7831,1.7864,1.7964,1.8009,1.8052,1.8056,1.7957,1.7959,1.7951,1.7925,1.8047,1.8047,1.8047,1.8047,1.7594,1.7597,1.7711,1.7787,1.7864,1.7905,1.8028,1.8088,1.8146,1.8177,1.8164,1.8132,1.8121,1.8131,1.8118,1.8094,1.8257,1.8257,1.8257,1.7679,1.7692,1.7788,1.7841,1.792,1.7989,1.8106,1.8197,1.8258,1.8266,1.8203,1.8195,1.8143,1.8124,1.813,1.8109,1.8067,0,0]},{"header":{"parameterUnit":"m.s-1","parameterCategory":1,"la1":30.2992,"la2":30.254,"lo1":-89.0895,"lo2":-89.0443,"dy":0.0025,"dx":0.0025,"nx":19,"ny":19,"refTime":"2026-03-23T03:00:00:Z","depth":0,"parameterNumber":3,"parameterNumberName":"V-component_of_WINDS"},"data":[0,0,0,4.7354,4.7358,4.7504,4.7505,4.7686,4.7687,0,0,0,0,0,0,0,0,0,0,0,4.731,4.7312,4.7354,4.7358,4.7504,4.7505,4.7685,4.7687,0,0,0,0,0,0,0,0,0,0,0,4.731,4.7311,4.7313,4.7358,4.7504,4.7505,4.7685,4.7576,0,0,0,0,0,0,0,0,0,0,4.7434,4.7394,4.7311,4.7313,4.7359,4.7504,4.7505,4.7571,4.7583,4.7618,0,4.7651,0,4.7673,4.7699,4.77,0,0,0,4.7357,4.7384,4.7424,4.7313,4.7361,4.7504,4.7438,4.7577,4.7591,4.7633,4.7654,4.7661,4.7676,4.7701,4.7701,4.7914,4.7915,0,0,4.7349,4.7335,4.7415,4.7433,4.7414,4.7433,4.7443,4.7586,4.7606,4.7655,4.7665,4.7679,4.7702,4.7703,4.7913,4.7914,0,0,0,4.7326,4.733,4.7367,4.7426,4.7453,4.7438,4.7448,4.7599,4.7613,4.7667,4.7681,4.7703,4.7705,4.7912,4.7913,4.7953,0,0,0,4.7321,4.7316,4.7363,4.7356,4.745,4.7529,4.7459,4.7603,4.762,4.768,4.7703,4.7707,4.791,4.7912,4.7949,4.7973,0,0,0,4.7301,4.7314,4.7336,4.7355,4.7419,4.7527,4.7549,4.7607,4.7628,4.77,4.7707,4.791,4.7912,4.7946,4.7968,4.8026,0,0,0,4.7274,4.7366,4.7336,4.7443,4.7417,4.7551,4.7548,4.7647,4.7714,4.7704,4.7911,4.7913,4.7945,4.7965,4.8023,4.8073,4.8093,0,0,4.7382,4.7378,4.7443,4.742,4.7557,4.753,4.7671,4.7743,4.7759,4.786,4.7866,4.795,4.7968,4.8026,4.8208,4.8224,0,0,0,4.7472,4.7519,4.7558,4.7623,4.7682,4.7735,4.7787,4.7814,4.7901,4.781,4.7987,4.7998,4.8032,4.8057,4.807,4.8101,4.7924,4.7923,4.7923,4.7604,4.7625,4.7734,4.7772,4.7835,4.7889,4.7941,4.7986,4.7985,4.8026,4.8056,4.8165,4.8194,4.8204,4.8235,4.8084,4.8084,4.8084,4.8085,4.7765,4.7834,4.7835,4.7941,4.7961,4.8048,4.8103,4.81,4.8183,4.8144,4.8175,4.8131,4.8221,4.8249,4.8088,4.8087,4.8087,4.8086,4.8086,4.7855,4.7892,4.7925,4.8023,4.8095,4.8129,4.821,4.8224,4.8237,4.8268,4.8302,4.8301,4.8303,4.8283,4.8283,4.8284,4.8284,4.8284,4.8285,4.7935,4.7972,4.804,4.8113,4.8157,4.8217,4.8273,4.8316,4.8366,4.837,4.837,4.8366,4.8226,4.8191,4.8291,4.829,4.8289,4.8288,4.8288,4.8091,4.8059,4.8164,4.821,4.8296,4.8367,4.8385,4.8471,4.8508,4.8547,4.8536,4.8431,4.8427,4.8416,4.8388,4.8532,4.8532,4.8532,4.8532,4.8167,4.8168,4.828,4.8351,4.8422,4.845,4.8566,4.861,4.865,4.8673,4.8654,4.8617,4.8606,4.8608,4.8594,4.8567,4.8754,4.8754,4.8754,4.8265,4.8273,4.8371,4.8414,4.8483,4.8542,4.8652,4.8731,4.8768,4.8764,4.8692,4.8683,4.8623,4.8602,4.8596,4.8573,4.8524,0,0]}]]